THORAD AGENA D DEB

Satellite information

Favourite Embed

Satellite Type and Status

DEBRISIN ORBIT

Key statistics

Satellite THORAD AGENA D DEB at a glance.

Uptime

20286

Days in orbit

Revolutions

≈ 13.6

Per day

Orbit

SSO

Sun Synchronous Orbit

Inclination

99.5

Latest

Satellite identification and parameters

Extended collection of information and parameters for THORAD AGENA D DEB.

Object identification

Identified? True

Debris? True

Object name: THORAD AGENA D DEB

International designator: 1970-025MB

Object number (NORAD): 5696

Object ID (CCSDS): 5696

Country: UNITED STATES OF AMERICA (US)

Current information (Y/N): Y

RCS size: SMALL

Orbital parameters

Period: 106.186 minutes

Inclination: 99.4971 deg

SMA: 7428.017 km

Apoapsis: 1090.524 km

Periapsis: 1009.241 km

RAAN: 38.5102 deg

Eccentricy: 0.0054714

Argument of periapsis: 52.477 deg

Mean anomaly: 325.7809 deg

Mean motion: 13.56105271 rev/day

Mean motion (dot): 0.00000752 rev/day2

B* drag term: 0.0011226 1/REarth

Two-line elements (TLE)

Creation date: Oct. 21, 2025, 11:56 p.m.

Reference frame: TEME

Reference center: EARTH

Epoch: Oct. 21, 2025, 12:49 p.m. UTC

TLE line 0: 0 THORAD AGENA D DEB

TLE line 1: 1 5696U 70025MB 25294.53469624 .00000752 00000-0 11226-2 0 9999

TLE line 2: 2 5696 99.4971 38.5102 0054714 52.4770 325.7809 13.56105271734090

Live tracking on map

Real-time ground track for satellite THORAD AGENA D DEB.

In-orbit conjunctions

A list of the most updated potential collisions computed for object THORAD AGENA D DEB.

Target Orbit TCA Probability of collision Miss distance Type
THORAD AGENA D DEB SSO 2025-10-17 22:04:33 0.0003079104 117.0 (m) DEBRIS
SL-8 R/B LEO 2024-11-01 16:05:53 0.0002606174 250.0 (m) ROCKET BODY

Associated space launch

Meteorological research and development satellite

THORAD AGENA D DEB was lifted into orbit during the mission ‘Thorad SLV-2G Agena D | Nimbus 4’, on board a Thorad SLV-2G Agena D space rocket.

The launch took place on April 8, 1970, 8:17 a.m. from Space Launch Complex 2E.

For more information about the launch, click the button.

Launch to space Thorad SLV-2G Agena D | Nimbus 4
Thorad SLV-2G Agena D | Nimbus 4

Agency: N/A

Status: Launch Successful

Launch date: April 8, 1970, 8:17 a.m. UTC

Rocket: Thorad SLV-2G Agena D

Launch pad: Space Launch Complex 2E

Location: Vandenberg SFB, CA, USA

...

Latest news about this satellite

There are no fresh news available about this satellite. Check back as we update our databases every day.


Newsletter sign-up

Weekly statistics, charts and insights to help you stay on top of the space industry.